User: anonymous
Location: NJAA Observatory
(40.6819°N, 74.8979°W)
Time: 00:37:09
(UTC-04:00)
Language:

S-56A Canister/Altair - Orbit

View from above orbital plane
View from above orbital plane
View from above satellite
View from above satellite

Ground track
Ground track

The orbit data is extracted from the following two-line orbital elements,

1 00082U 61004B   14245.76253579 -.00000024  00000-0  15565-4 0  7149
2 00082 038.8577 105.2344 1177113 321.2075 030.9552 12.25640305548290
Epoch (UTC): 02 September 2014 18:18:03
Eccentricity: 0.1177113
inclination: 38.8577°
perigee height: 633 km
apogee height: 2503 km
right ascension of ascending node: 105.2344°
argument of perigee: 321.2075°
revolutions per day: 12.25640305
mean anomaly at epoch: 30.9552°
orbit number at epoch: 54829

The dashed part of the orbit path shows where the satellite is in the earth's shadow,  

DLR